Weather observations for the past three days for
Houston, Hooks Memorial Airport
Imperial (Metric)
Date Time (cdt) Wind (mph) Vis. (mi.) Weather Sky Cond. Temperature (ºF) Relative Humidity Wind Chill (°F) Heat Index (°F) Pressure Precipitation (in)
Air Dwpt 6 hour altimeter (in) sea level (mb) 1 hr 3 hr 6 hr
Max. Min.
14 05:53 Calm 7.00 Mostly Cloudy BKN055 78.1 75 90% 81 29.94 1013.6
14 04:53 Calm 6.00 Fog/Mist SCT055 77 75 94% 78 29.92 1013.0
14 03:53 Calm 7.00 Fair CLR 77 75 94% 78 29.92 1012.9
14 02:53 Calm 8.00 Fair CLR 78.1 75 90% 81 29.91 1012.7
14 01:53 Calm 9.00 A Few Clouds FEW055 79 75.9 90% 83 29.92 1013.1
14 00:53 Calm 9.00 Fair CLR 79 75 91 79 88% 83 29.92 1013.0
13 23:53 Calm 10.00 Fair CLR 81 75.9 85% 87 29.92 1012.9
13 22:53 SE 3 10.00 Fair CLR 82.9 75 77% 90 29.91 1012.5
13 21:53 E 3 10.00 Partly Cloudy SCT055 82.9 73 72% 89 29.9 1012.2
13 20:53 E 5 10.00 Partly Cloudy SCT060 86 72 63% 92 29.89 1012.0
13 19:53 E 5 10.00 Mostly Cloudy BKN050 89.1 72 57% 96 29.89 1011.8
13 18:53 E 7 10.00 Fair CLR 91 73 95 89.1 56% 100 29.88 1011.5
13 17:53 NE 6 10.00 A Few Clouds FEW080 91 72 54% 99 29.88 1011.5
13 16:53 NE 6 10.00 A Few Clouds FEW055 95 73 49% 105 29.89 1011.9
13 15:53 N 7 10.00 Fair CLR 93.9 72 49% 102 29.9 1012.2
13 14:53 Calm 10.00 A Few Clouds FEW047 93 73 52% 102 29.91 1012.5
13 13:53 Calm 10.00 Overcast BKN041 OVC050 91 73.9 57% 101 29.93 1013.3
13 12:53 Calm 10.00 Fair CLR 91 75 91.9 77 59% 102 29.95 1013.8
13 11:53 Calm 10.00 A Few Clouds FEW050 88 75 66% 98 29.96 1014.4
13 10:53 Calm 10.00 Mostly Cloudy BKN075 87.1 75 67% 97 29.96 1014.4
13 09:53 Calm 10.00 Fair CLR 84.9 73 68% 92 29.96 1014.4
13 08:53 Calm 10.00 A Few Clouds FEW075 80.1 72 76% 84 29.96 1014.2
13 07:53 E 5 10.00 Mostly Cloudy BKN070 78.1 71.1 79% 80 29.94 1013.7
13 06:53 NE 3 10.00 Mostly Cloudy BKN080 77 71.1 78.1 75.9 82% 79 29.92 1013.1
13 05:53 Calm 10.00 Mostly Cloudy BKN080 77 71.1 82% 79 29.91 1012.5
13 04:53 NE 5 8.00 Fair CLR 77 73 88% 78 29.9 1012.2
13 03:53 N 3 7.00 Fair CLR 77 73.9 90% 78 29.88 1011.7
13 02:53 Calm 6.00 Fog/Mist CLR 75.9 73.9 94% 75 29.88 1011.7
13 01:53 Calm 6.00 Fog/Mist CLR 77 73.9 90% 78 29.9 1012.3
13 00:53 Calm 6.00 Fog/Mist CLR 77 73.9 84.9 77 90% 78 29.91 1012.7
12 23:53 NE 5 10.00 Fair CLR 79 73.9 85% 83 29.93 1013.2
12 22:53 Calm 10.00 Fair CLR 78.1 75 90% 81 29.93 1013.1
12 21:53 Calm 10.00 Fair CLR 79 75 88% 83 29.91 1012.5
12 20:53 Calm 10.00 Fair CLR 82 73 74% 87 29.9 1012.1
12 19:53 S 5 10.00 Fair CLR 84 73 70% 90 29.89 1012.0
12 18:53 S 7 10.00 A Few Clouds FEW049 84.9 75 93 84.9 72% 93 29.9 1012.1
12 17:53 NE 6 10.00 Mostly Cloudy FEW045 BKN060 91 72 54% 99 29.89 1011.8
12 16:53 Vrbl 5 10.00 Partly Cloudy SCT043 90 72 56% 97 29.89 1012.0
12 15:53 NE 5 10.00 Fair CLR 91 72 54% 99 29.91 1012.6
12 14:53 Vrbl 5 10.00 Partly Cloudy SCT033 89.1 73 59% 97 29.92 1013.0
12 13:53 E 6 10.00 Partly Cloudy SCT033 90 73 58% 98 29.94 1013.7
12 12:53 NE 5 10.00 Partly Cloudy SCT033 88 73.9 90 75 63% 97 29.96 1014.2
12 11:53 E 6 10.00 Fair CLR 89.1 73.9 61% 98 29.96 1014.2
12 10:53 Vrbl 5 10.00 Fair CLR 86 72 63% 92 29.97 1014.4
12 09:53 Vrbl 6 10.00 Fair CLR 84 72 67% 90 29.96 1014.4
12 08:53 E 7 10.00 Fair CLR 81 73 77% 86 29.96 1014.3
12 07:53 NE 5 9.00 Fair CLR 78.1 73 85% 81 29.95 1013.8
12 06:53 Calm 7.00 Fair CLR 75 72 75.9 75 90% 74 29.92 1013.0
12 05:53 NE 3 8.00 Fair CLR 75 72 90% 74 29.91 1012.7
12 04:53 Calm 9.00 A Few Clouds FEW050 75 72 90% 74 29.91 1012.5
12 03:53 Calm 9.00 Fair CLR 75.9 73 91% 76 29.9 1012.3
12 02:53 Calm 10.00 Fair CLR 75.9 73 91% 76 29.9 1012.2
12 01:53 E 3 10.00 Fair CLR 75.9 73 91% 76 29.89 1012.0
12 00:53 E 5 10.00 Fair CLR 75.9 73 84 75.9 91% 76 29.9 1012.2
11 23:53 E 9 10.00 Fair CLR 77 72 85% 78 29.91 1012.5
11 22:53 E 5 10.00 Fair CLR 78.1 72 82% 80 29.91 1012.4
11 21:53 NE 5 10.00 Fair CLR 77 72 85% 78 29.88 1011.6
11 20:53 E 8 10.00 Mostly Cloudy SCT044 BKN060 75.9 71.1 85% 76 29.88 1011.7
11 19:53 NE 6 10.00 Light Rain FEW039 BKN050 OVC095 79 72 79% 82 29.87 1011.2
11 18:53 S 3 10.00 Partly Cloudy SCT100 82.9 75 95 82.9 77% 90 29.84 1010.1
11 17:53 Vrbl 7 10.00 Mostly Cloudy BKN060 88 73.9 63% 97 29.82 1009.4
11 16:53 Vrbl 6 10.00 Partly Cloudy SCT055 SCT070 93.9 72 49% 102 29.81 1009.1
11 15:53 NE 5 10.00 Mostly Cloudy BKN060 93 73 52% 102 29.82 1009.6
11 14:53 Calm 10.00 A Few Clouds FEW050 93 72 50% 101 29.84 1010.3
11 13:53 Calm 10.00 Fair CLR 91.9 75 58% 103 29.87 1011.1
11 12:53 Calm 10.00 A Few Clouds FEW035 91 73 91 75 56% 100 29.88 1011.7
11 11:53 S 5 10.00 A Few Clouds FEW028 88 75.9 68% 99 29.89 1012.0
11 10:53 Vrbl 3 10.00 A Few Clouds FEW019 87.1 75.9 70% 98 29.9 1012.2
11 09:53 Calm 9.00 Fair CLR 84 75.9 77% 93 29.9 1012.1
11 08:53 E 7 8.00 Fair CLR 81 75 82% 87 29.89 1011.8
11 07:53 E 8 7.00 Fair CLR 78.1 73.9 87% 81 29.88 1011.6
11 06:53 Calm 7.00 Fair CLR 75 72 75 73.9 90% 74 29.87 1011.3
Date Time (cdt) Wind (mph) Vis. (mi.) Weather Sky Cond. Air Dwpt Max. Min. Relative Humidity Wind Chill (°F) Heat Index (°F) altimeter (in) sea level (mb) 1 hr 3 hr 6 hr
6 hour
Temperature (ºF) Pressure Precipitation (in)